FW2972 Weather Reports


Display with metric or nautical units.
time (UTC)temp
F
wind
direction
speed
MPH
gust
MPH
rain 1hr
in
rain 24hr
in
rain mn
in
humidity
%
barometer
mb
20260507095509 69 180 0.0 4.0 0.00 0.00 0.00 93 1017.1
20260507095005 69 43 2.0 4.0 0.00 0.00 0.00 93 1017.1
20260507094502 69 104 2.0 6.0 0.00 0.00 0.00 92 1017.1
20260507093959 69 12 2.0 4.0 0.00 0.00 0.00 92 1016.8
20260507093456 69 48 0.0 3.0 0.00 0.00 0.00 92 1016.9
20260507092954 69 113 0.0 3.0 0.00 0.00 0.00 92 1016.9
20260507092451 69 141 1.0 5.0 0.00 0.00 0.00 92 1017.0
20260507091948 69 354 2.0 7.0 0.00 0.00 0.00 92 1017.0
20260507091444 69 15 1.0 5.0 0.00 0.00 0.00 92 1016.9
20260507090940 70 108 2.0 6.0 0.00 0.00 0.00 92 1017.0
20260507090436 70 284 2.0 6.0 0.00 0.00 0.00 92 1017.0
20260507085932 70 46 1.0 3.0 0.00 0.00 0.00 92 1016.9
20260507085430 70 273 1.0 3.0 0.00 0.00 0.00 92 1016.7
20260507084927 70 127 0.0 5.0 0.00 0.00 0.00 92 1016.6
20260507084424 70 48 0.0 5.0 0.00 0.00 0.00 91 1016.6
20260507083921 70 51 2.0 5.0 0.00 0.00 0.00 91 1016.6
20260507083417 70 245 0.0 3.0 0.00 0.00 0.00 91 1016.4
20260507082914 71 58 1.0 3.0 0.00 0.00 0.00 91 1016.4
20260507082409 71 289 2.0 4.0 0.00 0.00 0.00 92 1016.5
20260507081907 71 92 2.0 5.0 0.00 0.00 0.00 91 1016.4
20260507081403 71 29 2.0 5.0 0.00 0.00 0.00 91 1016.7
20260507080859 71 46 2.0 6.0 0.00 0.00 0.00 91 1016.6
20260507080356 71 12 2.0 7.0 0.00 0.00 0.00 91 1016.6
20260507075851 71 91 3.0 7.0 0.00 0.00 0.00 91 1016.6
20260507075347 71 57 2.0 4.0 0.00 0.00 0.00 92 1016.6
20260507074844 71 100 0.0 5.0 0.00 0.00 0.00 92 1016.7
20260507074341 71 81 0.0 5.0 0.00 0.00 0.00 92 1016.7
20260507073838 72 122 0.0 4.0 0.00 0.00 0.00 92 1016.7
20260507073335 72 83 1.0 3.0 0.00 0.00 0.00 92 1016.6
20260507072832 72 287 3.0 9.0 0.00 0.00 0.00 91 1016.8
20260507072330 72 311 2.0 5.0 0.00 0.00 0.00 91 1016.6
20260507071827 72 16 2.0 4.0 0.00 0.00 0.00 91 1016.7
20260507071324 72 318 0.0 5.0 0.00 0.00 0.00 91 1016.9
20260507070820 72 83 0.0 3.0 0.00 0.00 0.00 91 1016.9
20260507070318 72 44 2.0 3.0 0.00 0.00 0.00 91 1016.8
20260507065814 72 67 1.0 7.0 0.00 0.00 0.00 91 1016.7
20260507065311 73 223 2.0 9.0 0.00 0.00 0.00 91 1016.8
20260507064808 73 51 1.0 5.0 0.00 0.00 0.00 91 1016.8
20260507064307 73 312 0.0 5.0 0.00 0.00 0.00 91 1016.9
20260507063804 73 12 4.0 6.0 0.00 0.00 0.00 91 1016.9
20260507063301 73 89 0.0 2.0 0.00 0.00 0.00 91 1016.9
20260507062758 73 180 0.0 6.0 0.00 0.00 0.00 91 1016.9
20260507062255 73 317 1.0 4.0 0.00 0.00 0.00 91 1016.8
20260507061753 73 16 1.0 4.0 0.00 0.00 0.00 91 1016.7
20260507061250 73 76 0.0 3.0 0.00 0.00 0.00 91 1016.8
20260507060748 73 110 0.0 3.0 0.00 0.00 0.00 91 1016.7
20260507060245 73 191 0.0 3.0 0.00 0.00 0.00 91 1016.4
20260507055741 73 29 2.0 3.0 0.00 0.00 0.00 91 1016.3
20260507055237 74 50 0.0 5.0 0.00 0.00 0.00 91 1016.2
20260507054733 74 39 0.0 4.0 0.00 0.00 0.00 92 1016.4
20260507054230 74 127 1.0 3.0 0.00 0.00 0.00 92 1016.4
20260507053727 74 142 0.0 1.0 0.00 0.00 0.00 93 1016.5
20260507053225 74 162 2.0 4.0 0.00 0.00 0.00 93 1016.4
20260507052724 74 136 2.0 3.0 0.00 0.00 0.00 93 1016.5
20260507052219 74 230 0.0 7.0 0.00 0.00 0.00 93 1016.4
20260507051718 74 356 0.0 3.0 0.00 0.00 0.00 94 1016.5
20260507051214 74 176 0.0 4.0 0.00 0.00 0.00 93 1016.6
20260507050710 74 350 0.0 4.0 0.00 0.00 0.00 93 1016.6
20260507050208 74 0 0.0 5.0 0.00 0.00 0.00 93 1016.5
20260507045705 75 5 1.0 3.0 0.00 0.00 0.00 93 1016.6
20260507045201 75 89 0.0 3.0 0.00 0.00 0.00 94 1016.5
20260507044658 75 249 0.0 5.0 0.00 0.00 0.00 93 1016.6
20260507044154 75 343 2.0 4.0 0.00 0.00 0.00 94 1016.6
20260507043651 75 62 0.0 3.0 0.00 0.00 0.00 94 1016.6
20260507043148 75 269 0.0 3.0 0.00 0.00 0.00 94 1016.7
20260507042644 75 342 0.0 5.0 0.00 0.00 0.00 94 1016.6
20260507042139 75 65 0.0 4.0 0.00 0.00 0.00 93 1016.6
20260507041637 76 351 0.0 8.0 0.00 0.00 0.00 93 1016.4
20260507041133 76 33 1.0 6.0 0.00 0.00 0.00 93 1016.4
20260507040630 77 337 0.0 7.0 0.00 0.00 0.00 94 1016.4
20260507040127 78 50 0.0 12.0 0.00 0.00 0.00 97 1016.0
20260507035622 78 29 0.0 1.0 0.00 0.00 0.00 98 1015.8
20260507035118 78 0 0.0 0.0 0.00 0.00 0.00 98 1016.0
20260507034616 78 129 0.0 2.0 0.00 0.00 0.00 98 1015.8
20260507034113 78 154 0.0 1.0 0.00 0.00 0.00 98 1015.8
20260507033612 78 260 0.0 3.0 0.00 0.00 0.00 98 1016.0
20260507033108 78 244 0.0 2.0 0.00 0.00 0.00 98 1015.8
20260507032606 78 235 0.0 1.0 0.00 0.00 0.00 97 1015.6
20260507032102 78 230 0.0 1.0 0.00 0.00 0.00 97 1015.3
20260507031558 78 212 0.0 0.0 0.00 0.00 0.00 97 1015.4
20260507031055 78 186 0.0 3.0 0.00 0.00 0.00 97 1015.3
20260507030551 78 246 0.0 2.0 0.00 0.00 0.00 97 1015.2
20260507030050 78 169 0.0 6.0 0.00 0.00 0.00 97 1015.0
20260507025547 78 203 0.0 5.0 0.00 0.00 0.00 97 1015.0
20260507025044 78 186 0.0 2.0 0.00 0.00 0.00 97 1015.0
20260507024542 78 115 0.0 2.0 0.00 0.00 0.00 97 1014.7
20260507024038 78 205 0.0 1.0 0.00 0.00 0.00 97 1014.8
20260507023533 78 164 0.0 1.0 0.00 0.00 0.00 97 1014.9
20260507023032 79 230 0.0 2.0 0.00 0.00 0.00 97 1014.8
20260507022528 79 205 0.0 2.0 0.00 0.00 0.00 97 1014.5
20260507022023 78 205 0.0 0.0 0.00 0.00 0.00 97 1014.5
20260507021520 79 205 0.0 1.0 0.00 0.00 0.00 96 1014.5
20260507021016 79 230 0.0 1.0 0.00 0.00 0.00 96 1014.5
20260507020514 79 217 0.0 3.0 0.00 0.00 0.00 96 1014.4
20260507020010 79 164 0.0 1.0 0.00 0.00 0.00 96 1014.4
20260507015509 79 204 1.0 2.0 0.00 0.00 0.00 96 1014.2
20260507015006 79 254 1.0 2.0 0.00 0.00 0.00 96 1014.0
20260507014502 79 95 1.0 3.0 0.00 0.00 0.00 95 1014.0
20260507013958 79 180 1.0 3.0 0.00 0.00 0.00 95 1013.9
20260507013455 79 198 1.0 2.0 0.00 0.00 0.00 95 1013.8
20260507012952 80 129 4.0 5.0 0.00 0.00 0.00 95 1013.9
20260507012449 80 197 0.0 2.0 0.00 0.00 0.00 94 1013.9
20260507011946 80 131 4.0 7.0 0.00 0.00 0.00 94 1013.7
20260507011443 80 227 0.0 3.0 0.00 0.00 0.00 94 1013.6
20260507010938 80 235 1.0 4.0 0.00 0.00 0.00 94 1013.5
20260507010433 80 157 2.0 7.0 0.00 0.00 0.00 94 1013.3
20260507005930 80 226 2.0 3.0 0.00 0.00 0.00 94 1013.5
20260507005427 80 155 4.0 5.0 0.00 0.00 0.00 93 1013.4
20260507004923 80 215 1.0 7.0 0.00 0.00 0.00 93 1013.3
20260507004420 80 195 2.0 3.0 0.00 0.00 0.00 93 1013.4
20260507003918 80 124 0.0 2.0 0.00 0.00 0.00 92 1013.2
20260507003413 81 186 1.0 7.0 0.00 0.00 0.00 92 1013.3
20260507002908 81 214 1.0 3.0 0.00 0.00 0.00 92 1013.3
20260507002404 81 212 0.0 2.0 0.00 0.00 0.00 92 1013.2
20260507001902 81 159 2.0 6.0 0.00 0.00 0.00 92 1012.9
20260507001359 81 227 0.0 3.0 0.00 0.00 0.00 92 1013.1
20260507000856 81 232 0.0 3.0 0.00 0.00 0.00 91 1013.2
20260507000351 81 172 1.0 3.0 0.00 0.00 0.00 91 1013.3
20260506235847 81 237 2.0 5.0 0.00 0.00 0.00 91 1013.0
20260506235345 82 251 2.0 5.0 0.00 0.00 0.00 90 1013.1
20260506234840 82 230 0.0 3.0 0.00 0.00 0.00 90 1012.9
20260506234338 82 182 1.0 4.0 0.00 0.00 0.00 90 1013.1
20260506233836 82 186 1.0 4.0 0.00 0.00 0.00 90 1013.0
20260506233331 82 199 2.0 6.0 0.00 0.00 0.00 89 1013.0
20260506232829 82 207 1.0 2.0 0.00 0.00 0.00 89 1013.0
20260506232324 82 81 2.0 5.0 0.00 0.00 0.00 89 1013.0
20260506231821 82 257 3.0 7.0 0.00 0.00 0.00 89 1013.0
20260506231319 83 254 0.0 4.0 0.00 0.00 0.00 88 1012.9
20260506230816 83 152 1.0 4.0 0.00 0.00 0.00 88 1012.6
20260506230313 84 198 2.0 7.0 0.00 0.00 0.00 87 1012.7
20260506225809 83 240 2.0 3.0 0.00 0.00 0.00 87 1012.8
20260506225306 83 293 1.0 6.0 0.00 0.00 0.00 88 1012.9
20260506224803 83 162 1.0 4.0 0.00 0.00 0.00 87 1012.6
20260506224300 83 214 2.0 9.0 0.00 0.00 0.00 88 1012.4
20260506223756 83 174 2.0 5.0 0.00 0.00 0.00 87 1012.7
20260506223251 83 150 3.0 9.0 0.00 0.00 0.00 87 1012.6
20260506222749 83 184 3.0 11.0 0.00 0.00 0.00 87 1012.4
20260506222244 83 242 1.0 7.0 0.00 0.00 0.00 87 1012.7
20260506221737 83 189 3.0 6.0 0.00 0.00 0.00 87 1012.8
20260506221234 83 159 4.0 11.0 0.00 0.00 0.00 87 1012.8
20260506220731 83 213 2.0 3.0 0.00 0.00 0.00 88 1012.6
20260506220226 83 239 2.0 7.0 0.00 0.00 0.00 87 1012.7
20260506215723 84 169 2.0 11.0 0.00 0.00 0.00 86 1012.5
20260506215219 85 246 2.0 4.0 0.00 0.00 0.00 84 1012.8
20260506214715 85 260 0.0 7.0 0.00 0.00 0.00 85 1012.7
20260506214213 85 212 1.0 4.0 0.00 0.00 0.00 84 1012.8
20260506213711 86 147 2.0 5.0 0.00 0.00 0.00 83 1012.7
20260506213208 86 171 0.0 3.0 0.00 0.00 0.00 82 1013.0
20260506212705 87 230 0.0 2.0 0.00 0.00 0.00 81 1012.9
20260506212200 87 247 0.0 5.0 0.00 0.00 0.00 81 1012.7
20260506211656 87 258 3.0 4.0 0.00 0.00 0.00 80 1012.8
20260506211152 86 249 0.0 4.0 0.00 0.00 0.00 83 1013.0
20260506210649 85 293 0.0 3.0 0.00 0.00 0.00 85 1012.8
20260506210146 84 212 3.0 7.0 0.00 0.00 0.00 85 1012.9
20260506205643 85 257 4.0 8.0 0.00 0.00 0.00 84 1012.6
20260506205138 86 132 0.0 8.0 0.00 0.00 0.00 83 1012.7
20260506204636 86 211 2.0 4.0 0.00 0.00 0.00 83 1012.9
20260506204133 85 184 1.0 9.0 0.00 0.00 0.00 84 1012.9
20260506203631 85 278 1.0 6.0 0.00 0.00 0.00 84 1013.1
20260506203127 86 210 3.0 7.0 0.00 0.00 0.00 84 1013.1
20260506202626 85 179 4.0 11.0 0.00 0.00 0.00 85 1012.9
20260506202121 84 212 3.0 11.0 0.00 0.00 0.00 86 1013.1
20260506201619 84 218 4.0 9.0 0.00 0.00 0.00 87 1013.2
20260506201115 83 223 1.0 8.0 0.00 0.00 0.00 89 1013.4
20260506200612 83 220 0.0 5.0 0.00 0.00 0.00 88 1013.5
20260506200109 82 184 3.0 4.0 0.00 0.00 0.00 89 1013.6
20260506195605 82 217 2.0 9.0 0.00 0.00 0.00 89 1013.6
20260506195102 83 147 6.0 10.0 0.00 0.00 0.00 89 1013.6
20260506194559 84 141 5.0 11.0 0.00 0.00 0.00 88 1013.5
20260506194055 84 156 3.0 7.0 0.00 0.00 0.00 87 1013.7
20260506193553 84 188 4.0 6.0 0.00 0.00 0.00 87 1013.8
20260506193050 84 206 0.0 10.0 0.00 0.00 0.00 87 1013.8
20260506192547 84 230 1.0 6.0 0.00 0.00 0.00 87 1013.8
20260506192043 85 194 2.0 7.0 0.00 0.00 0.00 86 1013.6
20260506191540 84 171 1.0 8.0 0.00 0.00 0.00 87 1013.8
20260506191035 84 159 3.0 9.0 0.00 0.00 0.00 86 1014.0
20260506190533 84 172 3.0 7.0 0.00 0.00 0.00 86 1014.1
20260506190030 84 261 3.0 8.0 0.00 0.00 0.00 87 1014.0
20260506185527 84 240 2.0 6.0 0.00 0.00 0.00 87 1014.1
20260506185024 84 216 2.0 6.0 0.00 0.00 0.00 87 1014.2
20260506184521 84 277 3.0 5.0 0.00 0.00 0.00 87 1014.2
20260506184018 84 171 2.0 7.0 0.00 0.00 0.00 87 1014.1
20260506183514 84 129 3.0 11.0 0.00 0.00 0.00 87 1014.1
20260506183011 84 179 1.0 8.0 0.00 0.00 0.00 87 1014.3
20260506182508 84 224 3.0 7.0 0.00 0.00 0.00 87 1014.2
20260506182005 84 254 1.0 5.0 0.00 0.00 0.00 86 1014.6
20260506181503 84 255 2.0 6.0 0.00 0.00 0.00 88 1014.5
20260506181000 84 180 1.0 5.0 0.00 0.00 0.00 87 1014.6
20260506180456 85 220 2.0 3.0 0.00 0.00 0.00 86 1014.6
20260506175953 85 326 0.0 5.0 0.00 0.00 0.00 86 1014.7
20260506175449 84 218 0.0 11.0 0.00 0.00 0.00 88 1014.5
20260506174946 83 138 2.0 8.0 0.00 0.00 0.00 89 1014.8
20260506174444 83 185 3.0 9.0 0.00 0.00 0.00 89 1014.6
20260506173940 82 230 7.0 14.0 0.00 0.00 0.00 90 1014.8
20260506173438 82 166 3.0 5.0 0.00 0.00 0.00 91 1014.8
20260506172935 82 230 1.0 6.0 0.00 0.00 0.00 90 1015.0
20260506172432 82 147 2.0 7.0 0.00 0.00 0.00 89 1015.0
20260506171928 82 112 5.0 6.0 0.00 0.00 0.00 90 1015.1
20260506171426 82 195 0.0 4.0 0.00 0.00 0.00 91 1015.0
20260506170924 82 141 3.0 6.0 0.00 0.00 0.00 91 1015.0
20260506170419 82 171 2.0 3.0 0.00 0.00 0.00 91 1015.3
20260506165913 82 209 1.0 3.0 0.00 0.00 0.00 93 1015.1
20260506165411 81 240 1.0 7.0 0.00 0.00 0.00 94 1015.5
20260506164907 80 147 2.0 4.0 0.00 0.00 0.00 95 1015.1
20260506164403 81 197 0.0 2.0 0.00 0.00 0.00 96 1015.2
20260506163901 80 191 0.0 4.0 0.00 0.00 0.00 96 1015.5
20260506163356 80 168 2.0 4.0 0.02 0.00 0.00 96 1015.1
20260506162851 80 191 2.0 2.0 0.02 0.00 0.00 96 1015.1
20260506162349 80 185 0.0 3.0 0.00 0.00 0.00 95 1015.1
20260506161841 80 94 2.0 5.0 0.00 0.00 0.00 95 1014.9
20260506161338 80 155 4.0 6.0 0.00 0.00 0.00 96 1015.0
20260506160835 79 212 0.0 3.0 0.00 0.00 0.00 95 1015.1
20260506160332 79 210 1.0 4.0 0.00 0.00 0.00 96 1015.1
20260506155830 79 159 0.0 3.0 0.00 0.00 0.00 96 1015.1
20260506155326 80 177 1.0 5.0 0.00 0.00 0.00 95 1015.0
20260506153439 79 244 1.0 4.0 0.00 0.00 0.00 97 1014.8
20260506152936 79 170 2.0 3.0 0.00 0.00 0.00 96 1014.6
20260506152433 79 140 2.0 6.0 0.00 0.00 0.00 96 1014.5
20260506151932 79 152 2.0 5.0 0.00 0.00 0.00 96 1014.6
20260506151428 79 165 2.0 5.0 0.00 0.00 0.00 96 1014.4
20260506150926 79 172 2.0 7.0 0.00 0.00 0.00 96 1014.5
20260506150422 79 255 3.0 9.0 0.00 0.00 0.00 96 1014.2
20260506145919 79 155 2.0 6.0 0.00 0.00 0.00 96 1014.1
20260506145415 79 213 3.0 5.0 0.00 0.00 0.00 96 1014.1
20260506144913 79 104 3.0 7.0 0.00 0.00 0.00 96 1013.8
20260506144409 79 182 1.0 7.0 0.00 0.00 0.00 97 1013.9
20260506143908 78 243 4.0 5.0 0.00 0.00 0.00 97 1014.0
20260506143404 78 214 0.0 7.0 0.00 0.00 0.00 97 1013.9
20260506142903 78 157 2.0 7.0 0.00 0.00 0.00 96 1014.0
20260506142401 79 155 1.0 7.0 0.00 0.00 0.00 96 1013.9
20260506141858 79 116 4.0 7.0 0.00 0.00 0.00 96 1014.3
20260506141356 79 230 2.0 6.0 0.00 0.00 0.00 96 1014.0
20260506140854 79 149 1.0 9.0 0.00 0.00 0.00 96 1014.1
20260506140351 79 129 1.0 5.0 0.00 0.00 0.00 96 1014.2
20260506135848 79 216 3.0 3.0 0.00 0.00 0.00 95 1014.2
20260506135344 79 189 1.0 5.0 0.00 0.00 0.00 96 1014.3
20260506134841 79 189 1.0 4.0 0.00 0.00 0.00 97 1014.1
20260506134337 78 186 2.0 6.0 0.00 0.00 0.00 97 1014.3
20260506133834 78 160 3.0 4.0 0.00 0.00 0.00 98 1014.2
20260506133331 78 146 0.0 3.0 0.00 0.00 0.00 98 1014.3
20260506132827 78 210 1.0 2.0 0.00 0.00 0.00 98 1014.3
20260506132325 78 122 3.0 4.0 0.00 0.00 0.00 98 1014.2
20260506131823 77 210 1.0 4.0 0.00 0.00 0.00 99 1014.5
20260506131319 77 210 2.0 3.0 0.00 0.00 0.00 99 1014.4
20260506130816 77 193 0.0 3.0 0.00 0.00 0.00 99 1014.1
20260506130312 77 212 0.0 3.0 0.00 0.00 0.00 99 1014.2
20260506125811 77 81 0.0 3.0 0.00 0.00 0.00 99 1014.3
20260506125308 77 323 0.0 6.0 0.00 0.00 0.00 99 1014.4
20260506124807 77 197 1.0 5.0 0.00 0.00 0.00 99 1014.0
20260506124303 77 204 1.0 3.0 0.00 0.00 0.00 99 1014.1
20260506123801 77 254 2.0 4.0 0.00 0.00 0.00 99 1014.0
20260506123300 77 190 1.0 3.0 0.00 0.00 0.00 99 1013.9
20260506122756 77 164 1.0 5.0 0.00 0.00 0.00 99 1014.0
20260506122253 77 172 1.0 6.0 0.00 0.00 0.00 99 1013.8
20260506121751 76 191 2.0 5.0 0.00 0.00 0.00 99 1014.0
20260506121248 76 142 0.0 4.0 0.00 0.00 0.00 99 1013.8
20260506120745 76 213 2.0 6.0 0.00 0.00 0.00 99 1013.6
20260506120243 76 148 5.0 7.0 0.00 0.00 0.00 99 1013.6
20260506115740 76 230 0.0 3.0 0.00 0.00 0.00 99 1013.6
20260506115238 76 267 1.0 4.0 0.00 0.00 0.00 99 1013.6
20260506114736 76 217 0.0 7.0 0.00 0.00 0.00 99 1013.4
20260506114233 76 185 3.0 5.0 0.00 0.00 0.00 99 1013.3
20260506113731 76 164 2.0 5.0 0.00 0.00 0.00 99 1013.3
20260506113229 76 161 1.0 3.0 0.00 0.00 0.00 99 1013.1
20260506112725 76 170 1.0 3.0 0.00 0.00 0.00 99 1013.3
20260506112223 76 138 2.0 6.0 0.00 0.00 0.00 99 1013.1
20260506111720 76 150 3.0 5.0 0.00 0.00 0.00 99 1013.2
20260506111218 76 220 0.0 10.0 0.00 0.00 0.00 99 1012.9
20260506110714 76 132 1.0 4.0 0.00 0.00 0.00 99 1013.0
20260506110212 76 155 3.0 4.0 0.00 0.00 0.00 99 1012.8
20260506105709 76 184 2.0 8.0 0.00 0.00 0.00 99 1013.0
20260506105205 76 166 0.0 6.0 0.00 0.00 0.00 99 1013.3
20260506104704 76 210 1.0 4.0 0.00 0.00 0.00 99 1013.1
20260506104201 76 180 1.0 8.0 0.00 0.00 0.00 99 1013.1
20260506103658 76 106 1.0 3.0 0.00 0.00 0.00 99 1013.3
20260506103155 75 146 1.0 3.0 0.00 0.00 0.00 99 1013.3
20260506102653 75 134 2.0 3.0 0.00 0.00 0.00 99 1013.2
20260506102150 75 217 0.0 1.0 0.00 0.00 0.00 99 1013.3
20260506101647 75 230 0.0 0.0 0.00 0.00 0.00 99 1013.0
20260506101144 75 147 0.0 2.0 0.00 0.00 0.00 99 1013.0
20260506100642 75 153 1.0 3.0 0.00 0.00 0.00 99 1012.9
20260506100140 75 124 2.0 2.0 0.00 0.00 0.00 99 1012.9
20260506095638 75 140 2.0 3.0 0.00 0.00 0.00 99 1012.9